FREGAT R/B, 41106

Orbit data source: Space-Track

FREGAT R/B, 41106 is space debris originally from a launch on Fri, 11 Dec 2015 UTC launched from the Tyuratam Missile And Space Complex (TTMTR). Debris objects in space refer to the collection of defunct objects orbiting the Earth. Examples of debris include non-operational satellites, rocket bodies, and fragments generated from explosions, collisions, or faulty payload assembly.

Not visible in the next 10 days
FREGAT R/B details
Identifier
41106, 2015-074B
Orbit
Active
Last TLE update11 hours ago
Origin
Flag of CISLavochkin (CIS)
ManufacturerLavochkin
MissionSpacecraft
Bus & MotorFREGAT, Unknown motor
Mass1,000 kg wet, 1,000 kg dry
Launch date (UTC)
2015-12-11 (9 years ago)
Launch vehicleUnknown
Launch site
Tyuratam Missile And Space Complex (TTMTR)
Object type
Payload
Rocket body
Debris
Shape & HBRCyl, 3.3 m
Radar Cross Section8.683 m²

Expand to show TLE details & history

TLE from 11 hours ago
0 FREGAT R/B
1 41106U 15074B   24339.74282068 -.00000258  00000-0  00000-0 0  9993
2 41106   6.8024  68.2288 0194783 343.5604  15.6639  1.02896085 33752
Epoch: 2024-12-04T17:49Z
Definitive object data (Epoch: 2024-12-04T17:49:39.706Z)
Latitude0.00001°
Longitude86.5965°
Altitude34,286.696 km
Speed3.16 km/s
True Right ascension04h 32m 10s
True Declination0° 00' 00"
Sunlit
Object was in daylight at TLE epoch
Visualization TLE readout
Latitude1.50781°
Longitude-106.125°
Altitude35,874.227 km
Speed3.041 km/s
Apparent Right ascension15h 34m 58s
Apparent Declination-3° 36' 20"
Sunlit
Object is in daylight
Visualization observer readout
Local Sidereal Time02:39:53
Azimuth337.508° N
Elevation-51.611°
Doppler factor1
Orbital elements
Apogee altitude35,874.949 km
Perigee altitude34,260.362 km
Semi-major axis41,445.792 km
Eccentricity0.0194783
Inclination6.8024°
RAAN68.2288°
Arg. of periapsis343.5604°
True anomaly16.28098°
Mean anomaly15.6639°
Eccentric anomaly15.97097°
Mean motion0.25723 °/min
BSTARUnknown
Orbital period1399.52 mins
Loading maneuver chart data...
Loading historical data...
Loading historical data...
Loading historical data...
Loading historical data...
Loading historical data...
Loading historical data...
Loading historical data...

FREGAT R/B Visibility forecast

Observer location: undefined°, undefined

FREGAT R/B is not visible in the next 10 days
Span
Click to sort rows by Start time (UTC) header in descending order
Start Az.
Max El. time (UTC)
Max El. Az.
Max El.
End time (UTC)
End Az.
|